AirNav   TITAN Aviation Fuels
 
 932 users online  

I83 Salem Municipal Airport
Salem, Indiana, USA

GOING TO SALEM?


FAA INFORMATION EFFECTIVE 23 MARCH 2023

Location

FAA Identifier: I83
Lat/Long: 38-36-14.6725N 086-09-08.1058W
38-36.244542N 086-09.135097W
38.6040757,-86.1522516
(estimated)
Elevation: 839.9 ft. / 256 m (estimated)
Variation: 04W (2015)
From city: 2 miles W of SALEM, IN
Time zone: UTC -4 (UTC -5 during Standard Time)
Zip code: 47167

Airport Operations

Airport use: Open to the public
Control tower: no
ARTCC: INDIANAPOLIS CENTER
FSS: TERRE HAUTE FLIGHT SERVICE STATION
NOTAMs facility: HUF (NOTAM-D service available)
Attendance: IREG
Wind indicator: lighted
Segmented circle: no
Lights: ACTVT PAPI RWY 08; MIRL RWY 08/26 - CTAF. MIRL RWY 08/26 PRESET LOW INTST; INCR INTST - CTAF.

Airport Communications

CTAF/UNICOM: 123.0
WX AWOS-3 at BFR (20 nm NW): 119.125 (812-275-8306)
  • UNICOM NOT RGRLY MNTD.

Nearby radio navigation aids

VOR radial/distance  VOR name  Freq  Var
OOMr148/38.9HOOSIER VORTAC110.2002W

 
NDB name  Hdg/Dist  Freq  Var  ID
GODMAN351/39.639603WGOI --. --- ..

Airport Services

Fuel available: 100LL
100LL:FUEL AVBL H24 WITH CREDIT CARD.
Parking: buoy and tiedowns

Runway Information

Runway 8/26

Dimensions: 3000 x 75 ft. / 914 x 23 m
Surface: asphalt, in good condition
Weight bearing capacity: 
Single wheel: 30.0
Double wheel: 60.0
Runway edge lights: medium intensity
RUNWAY 8  RUNWAY 26
Latitude: 38-36.191155N38-36.297912N
Longitude: 086-09.442703W086-08.827420W
Elevation: 839.9 ft.816.4 ft.
Traffic pattern: leftleft
Markings: nonprecision, in good conditionnonprecision, in good condition
Visual slope indicator: 2-light PAPI on left (3.00 degrees glide path)
Runway end identifier lights: yesyes

Airport Ownership and Management from official FAA records

Ownership: Publicly-owned
Owner: SALEM BOARD OF AVN CMSNRS
334 N AIRPORT BLVD
SALEM, IN 47167
Phone (812) 883-5858
Manager: LOWELL DEPOY
334 N AIRPORT BLVD
SALEM, IN 47167
Phone (812) 896-4775

Airport Operational Statistics

Aircraft based on the field: 14
Single engine airplanes: 9
Multi engine airplanes: 1
Helicopters: 2
Ultralights: 2
    
Aircraft operations: avg 105/week *
73% local general aviation
27% transient general aviation
* for 12-month period ending 31 December 2019

Additional Remarks

FOR CD CTC LOUISVILLE APCH AT 502-375-7499

Instrument Procedures

There are no published instrument procedures at I83.

Some nearby airports with instrument procedures:

KBFR - Virgil I Grissom Municipal Airport (20 nm NW)
KSER - Freeman Municipal Airport (22 nm NE)
KFRH - French Lick Municipal Airport (23 nm W)
KJVY - Clark Regional Airport (24 nm SE)
KLOU - Bowman Field Airport (32 nm SE)
 
Loc | Ops | Rwys | IFR | FBO | Links
Com | Nav | Svcs | Stats | Notes
Area around I83 (Salem Municipal Airport)
 
Road maps at: MapQuest Bing Google
 
Aerial photo
WARNING: Photo may not be current or correct
Aerial photo of I83 (Salem Municipal Airport)
Photo by Phil Brooks
Photo taken 12-Sep-2019
looking west.

Do you have a better or more recent aerial photo of Salem Municipal Airport that you would like to share? If so, please send us your photo.

 
Sectional chart

 
Airport distance calculator
Flying to Salem Municipal Airport? Find the distance to fly.

From to I83

Sunrise and sunset
Times for 31-Mar-2023
 Local
(UTC-4)
 Zulu
(UTC)
Morning civil twilight07:0511:05
Sunrise07:3211:32
Sunset20:0600:06
Evening civil twilight20:3200:32

Current date and time
Zulu (UTC)  01-Apr-2023 02:05:18
Local (UTC-4)  31-Mar-2023 22:05:18
 
METAR
KBFR 
20nm NW 
010155Z AUTO 19022G39KT 10SM SCT026 BKN037 OVC047 20/14 A2955 RMK AO2 LTG DSNT SE AND SW
KFRH 
23nm W 
010155Z AUTO 20017G31KT 10SM BKN025 OVC033 19/13 A2959 RMK AO1
KJVY 
24nm SE 
010155Z AUTO 20019G25KT 10SM SCT030 SCT047 19/16 RMK AO2 PWINO
KSDF 
32nm SE 
010156Z 18017G29KT 10SM FEW027 SCT033 OVC180 19/14 A2965 RMK AO2 PK WND 19036/0109 RAB43E56 SLP038 P0000 T01940144
KLOU 
33nm SE 
010153Z AUTO 18019G31KT 10SM FEW026 FEW032 SCT050 19/14 A2966 RMK AO2 PK WND 19038/0123 SLP042 T01890144
KIMS 
34nm E 
010155Z AUTO 19021G30KT 10SM OVC020 17/16 A2965 RMK AO2
KBMG 
39nm NW 
010153Z AUTO 19027G41KT 10SM SCT025 BKN030 OVC044 20/16 A2952 RMK AO2 PK WND 19041/0144 SLP990 T02000156
TAF
KSDF 
32nm SE 
010024Z 0100/0206 18022G37KT P6SM VCSH SCT025 BKN040 FM010200 20022G30KT P6SM -SHRA VCTS OVC040CB WS020/20055KT TEMPO 0103/0105 27030G45KT 1SM -TSRA OVC025CB FM010600 23020G30KT P6SM SCT150 WS020/25050KT FM011300 26027G37KT P6SM SCT040 SCT250 FM011800 27028G37KT P6SM BKN040 FM012300 30017G25KT P6SM SCT040
KBMG 
39nm NW 
312208Z 3122/0118 19022G30KT P6SM OVC020 FM010200 19025G40KT 6SM -TSRA BR OVC014CB WS020/20050KT TEMPO 0102/0104 27025G60KT 2SM +TSRA BR OVC025CB FM010400 23026G41KT P6SM VCSH OVC035 WS020/24055KT FM011500 27019G35KT P6SM OVC035
NOTAMs
Click for the latest NOTAMs
NOTAMs are issued by the DoD/FAA and will open in a separate window not controlled by AirNav.

 

 
 

FBO, Fuel Providers, and Aircraft Ground Support

  
 Business Name 
 
 Contact 
 
 Services / Description 
 
Fuel Prices
 
Comments
  
Salem Municipal Airport 812-883-5858
812-883-4265
[web site]
[email]
Aviation fuel, Hangar leasing / sales, Public telephone, Internet access, Restrooms

More info about Salem Municipal Airport
independent
100LL
SS $5.47 
 Updated 16-Mar-2023
 
   write
SS=Self service
Update Fuel Prices
 

Would you like to see your business listed on this page?

 If your business provides an interesting product or service to pilots, flight crews, aircraft, or users of the Salem Municipal Airport, you should consider listing it here.  To start the listing process, click on the button below
 
Add a business
 

Other Pages about Salem Municipal Airport

cityofsalemin.com/...
 
Update a link
 
Copyright © AirNav, LLC. All rights reserved. Privacy Policy  Contact